Location: Unspecified
(0.0000°N, 0.0000°E)
Time: 11:44:47
(UTC+00:00)

BEESAT - Pass Details

Date: 09 December 2017
Orbit: 702 x 709 km, 98.5° (Epoch: 17 January)

Event Time Altitude Azimuth Distance (km) Brightness Sun altitude
Rises 03:08:58 0° 169° (S) 3,099 ? -37.1°
Reaches altitude 10° 03:11:14 10° 170° (S) 2,177 ? -36.6°
Enters shadow 03:11:48 13° 170° (S) 1,952 ? -36.4°
